SCP
0 0 0 0 0 0 0 0 0 0 0 0 0 0 0 0 0 0 0 0 0 0
0 0 0 0 0 0 0 0 0 0 0 0 0 0 0 0 0 0 0 0 0 0
0 0 0 0 0 0 0 0 0 0 0 0 0 0 0 0 0 0 0 0 0 0
0 0 0 0 0 0 0 0 0 0 0 0 0 0 0 0 0 0 0 0 0 0
0 0 0 0 0 0 0 0 0 0 0 0 0 0 0 0 0 0 0 0 0 0
0 0 0 0 0 0 0 0 0 0 0 0 0 0 0 0 0 0 0 0 0 0
0 0 0 0 0 0 0 0 0 0 0 0 0 0 0 0 0 0 0 0 0 0
0 0 0 0 0 0 0 0 0 0 0 0 0 0 0 0 0 0 0 0 0 0
0 0 0 0 0 0 0 0 0 0 0 0 0 0 0 0 0 0 0 0 0 0
0 0 0 0 0 0 0 0 0 0 0 0 0 0 0 0 0 0 0 0 0 0
0 0 0 0 0 0 0 0 0 0 0 0 0 0 0 0 0 0 0 0 0 0
0 0 0 0 0 0 0 0 0 0 0 0 0 0 0 0 0 0 0 0 0 0
0 0 0 0 0 0 0 0 0 0 0 0 0 0 0 0 0 0 0 0 0 0
0 0 0 0 0 0 0 0 0 0 0 0 0 0 0 0 0 0 0 0 0 0
Wind_Speed_500mb
69 74 73 70 77 76 69 64 64 75 81 79 82 81 83 87 77 81 89 86 96 94
55 61 67 71 72 75 68 62 59 64 70 77 84 78 80 86 85 74 82 90 92 95
36 46 55 62 69 66 68 62 55 60 67 68 75 71 75 73 78 83 85 87 99 94
30 38 44 51 59 64 67 62 54 53 56 63 67 69 79 73 79 71 88 82 86 88
33 39 45 47 52 58 59 58 55 53 54 58 59 66 67 75 70 81 82 83 86 86
40 42 46 49 52 54 52 52 54 56 59 60 63 65 68 67 72 71 75 77 81 80
51 48 49 51 53 53 51 51 51 52 57 58 61 65 68 66 70 74 75 74 68 65
55 54 56 56 56 52 52 51 50 52 56 57 55 56 56 58 63 68 68 64 57 56
56 57 58 58 54 52 53 52 51 50 54 54 55 54 54 57 60 63 58 55 50 42
58 58 56 56 53 52 52 52 52 49 51 52 52 51 52 49 53 57 53 49 55 52
52 51 50 52 52 50 50 51 49 46 49 50 49 45 46 45 45 46 48 55 54 59
47 45 46 46 47 45 48 49 46 42 46 46 46 45 44 40 42 49 55 58 55 68
45 45 44 40 40 41 43 44 45 44 43 41 39 38 39 40 47 58 63 65 67 66
39 38 37 38 40 38 41 40 42 42 40 37 37 35 34 34 45 60 64 67 68 77
Wind_Direction_500mb
244 248 250 246 251 254 253 252 249 239 240 236 235 241 240 255 249 254 251 240 239 232
252 251 249 247 248 256 257 254 248 239 238 241 241 237 248 245 253 244 249 244 239 233
264 260 255 251 250 251 258 256 249 241 244 240 239 241 244 244 245 254 242 246 235 232
283 274 265 256 251 249 251 256 252 250 247 241 241 243 246 248 249 246 245 243 239 238
296 287 275 266 257 253 252 254 253 250 246 240 241 244 245 248 243 247 243 238 233 236
280 287 283 274 266 260 255 254 252 250 248 244 244 244 246 249 246 246 239 236 236 236
272 277 277 281 275 267 259 255 254 251 251 249 250 249 249 247 245 245 240 238 236 231
264 264 264 269 274 268 259 255 252 250 250 251 253 253 248 251 253 245 242 236 231 220
267 268 266 266 265 259 252 249 249 249 248 248 250 253 258 257 252 244 235 228 217 213
274 274 271 268 264 259 251 247 247 246 245 246 248 252 255 255 247 240 234 221 203 204
271 271 268 264 262 258 252 248 250 249 247 245 246 249 256 254 243 232 221 214 208 204
274 272 267 261 258 254 248 245 246 249 250 252 250 248 249 248 233 222 208 210 212 200
273 270 266 260 254 250 243 239 240 243 245 249 251 250 249 245 228 220 206 196 205 209
275 270 265 257 249 241 240 234 234 239 243 243 243 244 241 239 231 221 216 204 199 194
Wind_Speed_850mb
69 74 73 70 77 76 69 64 64 75 81 79 82 81 83 87 77 81 89 86 96 94
55 61 67 71 72 75 68 62 59 64 70 77 84 78 80 86 85 74 82 90 92 95
36 46 55 62 69 66 68 62 55 60 67 68 75 71 75 73 78 83 85 87 99 94
30 38 44 51 59 64 67 62 54 53 56 63 67 69 79 73 79 71 88 82 86 88
33 39 45 47 52 58 59 58 55 53 54 58 59 66 67 75 70 81 82 83 86 86
40 42 46 49 52 54 52 52 54 56 59 60 63 65 68 67 72 71 75 77 81 80
51 48 49 51 53 53 51 51 51 52 57 58 61 65 68 66 70 74 75 74 68 65
55 54 56 56 56 52 52 51 50 52 56 57 55 56 56 58 63 68 68 64 57 56
56 57 58 58 54 52 53 52 51 50 54 54 55 54 54 57 60 63 58 55 50 42
58 58 56 56 53 52 52 52 52 49 51 52 52 51 52 49 53 57 53 49 55 52
52 51 50 52 52 50 50 51 49 46 49 50 49 45 46 45 45 46 48 55 54 59
47 45 46 46 47 45 48 49 46 42 46 46 46 45 44 40 42 49 55 58 55 68
45 45 44 40 40 41 43 44 45 44 43 41 39 38 39 40 47 58 63 65 67 66
39 38 37 38 40 38 41 40 42 42 40 37 37 35 34 34 45 60 64 67 68 77
Wind_Direction_850mb
244 248 250 246 251 254 253 252 249 239 240 236 235 241 240 255 249 254 251 240 239 232
252 251 249 247 248 256 257 254 248 239 238 241 241 237 248 245 253 244 249 244 239 233
264 260 255 251 250 251 258 256 249 241 244 240 239 241 244 244 245 254 242 246 235 232
283 274 265 256 251 249 251 256 252 250 247 241 241 243 246 248 249 246 245 243 239 238
296 287 275 266 257 253 252 254 253 250 246 240 241 244 245 248 243 247 243 238 233 236
280 287 283 274 266 260 255 254 252 250 248 244 244 244 246 249 246 246 239 236 236 236
272 277 277 281 275 267 259 255 254 251 251 249 250 249 249 247 245 245 240 238 236 231
264 264 264 269 274 268 259 255 252 250 250 251 253 253 248 251 253 245 242 236 231 220
267 268 266 266 265 259 252 249 249 249 248 248 250 253 258 257 252 244 235 228 217 213
274 274 271 268 264 259 251 247 247 246 245 246 248 252 255 255 247 240 234 221 203 204
271 271 268 264 262 258 252 248 250 249 247 245 246 249 256 254 243 232 221 214 208 204
274 272 267 261 258 254 248 245 246 249 250 252 250 248 249 248 233 222 208 210 212 200
273 270 266 260 254 250 243 239 240 243 245 249 251 250 249 245 228 220 206 196 205 209
275 270 265 257 249 241 240 234 234 239 243 243 243 244 241 239 231 221 216 204 199 194